Погода в Мурадыме

Россия / Республика Башкортостан     53°56′41″N   55°31′09″E
темп.,
°C
ветер,
м/с
пор.,
м/с
влажн.,
%
обл.,
%
осадки,
мм/ч
давл.,
гПа
погр.,
м
17 мая, пн
пн1723:00+20ю33521 0.0 102035
02:00+20зюз22573 0.0 102029
05:00+17ююв48655 0.0 1020112
08:00+21ююз25575 0.0 1021199
11:00+26юз454074 0.0 1021690
14:00+29зюз35317 0.0 10201830
17:00+30зюз57285 0.0 10193049
20:00+21з185999 0.3 1020269
18 мая, вт
вт1823:00+18юв366952 0.4 102091
02:00+17ююз34665 0.0 101952
05:00+17юз22593 0.0 101815
08:00+21ссз11535 0.0 1019135
11:00+25сз22422 0.0 1018636
14:00+28с33425 0.0 10171486
17:00+27ссв55445 0.0 10171980
20:00+22ссв485852 0.0 1018274
19 мая, ср
ср1923:00+18ссв41065100 0.1 1019199
02:00+15св41171100 0.0 1019215
05:00+13в35800 0.0 102094
08:00+17вюв46682 0.0 1020337
11:00+21в56520 0.0 1021872
14:00+24вюв56370 0.0 10201482
17:00+25юв34350 0.0 10201713
20:00+22юв224832 0.0 102023
20 мая, чт
чт2023:00+16юв4115469 0.0 1021181
02:00+14ююв4125488 0.0 1022239
05:00+12юв385822 0.0 1023145
08:00+16ююв51055100 0.0 1023371
11:00+20ююв56415 0.0 10231019
14:00+23юв45340 0.0 10221532
17:00+24ю45320 0.0 10201912
20:00+21ююз33510 0.0 102041
21 мая, пт
пт2123:00+16ююв22580 0.0 102011
02:00+14юв226212 0.0 102016
05:00+13юв346275 0.0 102047
08:00+17ююв47550 0.0 1020232
11:00+22ю56395 0.0 1020808
14:00+24ю4533100 0.0 10201982
17:00+25ююз343284 0.0 10192493
20:00+22ю114894 0.0 101911